Location: Bílinka
(49.3579°N, 14.3767°E)
Time: 00:35:35
(UTC+00:00)

Cosmos 2278 - Pass Details

Date: 28 January 2023
Orbit: 838 x 853 km, 71.1° (Epoch: 30 March)

Event Time Altitude Azimuth Distance (km) Brightness Sun altitude
Rises 17:40:28 0° 197° (SSW) 3,383 7.2 -17.7°
Reaches altitude 10° 17:42:54 10° 195° (SSW) 2,455 6.4 -18.1°
Maximum altitude 17:48:28 67° 114° (ESE) 917 3.6 -19.0°
Enters shadow 17:52:07 23° 37° (NE) 1,752 5.0 -19.6°
